Regional Weather Roundup
Issued by NWS

Home | Current Version | Previous Version | Graphics & Text | Print | Product List | Glossary On
Versions: 1 2 3 4 5 6 7 8 9 10 11 12 13 14 15 16 17 18 19 20 21 22 23 24 25 26 27 28 29 30 31 32 33 34 35 36 37 38 39 40 41 42 43 44 45 46 47 48 49 50
000
ASUS45 KTFX 251319
RWRMT
MONTANA HOURLY WEATHER ROUNDUP
NATIONAL WEATHER SERVICE GREAT FALLS MT
719 AM MDT FRI JUL 25 2014

NOTE: "FAIR" INDICATES FEW OR NO CLOUDS BELOW 12000 FEET WITH NO
SIGNIFICANT WEATHER AND/OR OBSTRUCTIONS TO VISIBILITY.

* THESE STATIONS ARE NOT UNDER NWS QUALITY CONTROL. THEY DO NOT
   REPORT WEATHER SUCH AS PRECIPITATION OR FOG.

MTZ001>007-043-251400-
WEST OF THE DIVIDE
CITY           SKY/WX    TMP DP  RH WIND       PRES   REMARKS
KALISPELL      PTCLDY    46  43  89 CALM      30.04R
MISSOULA       CLOUDY    48  39  71 W3        30.13S
BUTTE          CLEAR     37  30  76 SE3       30.15S
MULLAN PASS    CLOUDY    43  39  86 SW7       30.14S
* ESSEX        N/A       56  39  53 N2         N/A
* LINCOLN      N/A       47  37  68 W4G11      N/A
* LOOKOUT PASS N/A       49  43  80 N/A        N/A
* POLSON       N/A       48  40  74 SE2        N/A
* RONAN APT    PTCLDY    54  45  72 SW5        N/A
* SEELEY LAKE  N/A       35  33  92 NE2        N/A
* THOMP F APT  CLEAR     40  20  45 NE2G7      N/A
$$

MTZ008-052>055-251400-
SOUTHWEST MONTANA
CITY           SKY/WX    TMP DP  RH WIND       PRES   REMARKS
BOZEMAN        CLEAR     43  37  79 S6        30.10S
DILLON         CLEAR     41  34  76 SW8       30.12R
W YELLOWSTONE  CLEAR     37  27  67 CALM      30.21R
* THREE FORKS  CLEAR     39  39 100 N/A        N/A
* BOULDER HILL N/A       48  30  50 S4         N/A
* MONIDA PASS  N/A       37  27  67 W2         N/A
* RAYNOLDS PAS N/A       37  25  62 S6         N/A   WCI  32
* WHITEHALL    N/A       44  34  68 NE2        N/A
* WISE RIVER   N/A       36  30  79 E2         N/A
$$

MTZ009>010-012-014-046-048-049-054-251400-
EAST SLOPES AND CENTRAL MONTANA
CITY           SKY/WX    TMP DP  RH WIND       PRES   REMARKS
CUT BANK       CLEAR     54  37  53 SW9       29.91S
GREAT FALLS    CLEAR     57  36  46 SW26G37   29.94S
HELENA         CLEAR     57  37  47 CALM      30.08R
MALMSTROM AFB  CLEAR     57  36  46 SW29G37   29.96F
* CONRAD       CLEAR     48  43  83 SW6        N/A
* DEARBORN     N/A       60  36  41 S16G23     N/A
* EAST GLACIER N/A       53  35  51 N7G16      N/A
* MONARCH      N/A       51  29  43 S16G24     N/A
* PENDROY      N/A       49  40  71 W7         N/A
* ROGERS PASS  N/A       46  35  66 SE12G20    N/A
* SAINT MARY   N/A       53  36  53 S11G24     N/A
* SWEET GRASS  N/A       54  37  53 W15G23     N/A
* WHITE SULPH  N/A       45  37  74 S2         N/A
$$

MTZ011-013-016-021-035-040-045-047-050-051-251400-
NORTH CENTRAL MONTANA
CITY           SKY/WX    TMP DP  RH WIND       PRES   REMARKS
HAVRE          CLEAR     57  37  47 SW21G28   29.86R
LEWISTOWN      CLEAR     59  34  39 W12       29.99R
* FORT BENTON  CLEAR     57  37  47 S6        29.93S
* CHESTER      N/A       53  40  62 SW1        N/A
* DENTON       N/A       56  35  45 W7         N/A
* GEYSER       N/A       57  33  40 W9G18      N/A
* JUDITH GAP   N/A       55  36  49 N/A        N/A
* LOMA         N/A       52  39  61 E2         N/A
$$

MTZ017>020-022>027-061-062-251400-
NORTHEAST MONTANA
CITY           SKY/WX    TMP DP  RH WIND       PRES   REMARKS
GLASGOW        CLEAR     55  37  51 SW8       29.88S
GLENDIVE       CLEAR     57  48  72 SW5       29.96R
JORDAN         CLEAR     48  39  71 W3        29.95R
SIDNEY         CLEAR     63  45  52 W7        29.92R
WOLF POINT     CLEAR     52  46  80 NW3       29.90S
* BEAVER HILL  N/A       55  47  75 S6         N/A
* CIRCLE       N/A       51  48  90 N/A        N/A
* LINDSAY DVD  N/A       55  45  69 SW9        N/A
* NAVAJO       N/A       52  44  74 W12        N/A
$$

MTZ028>042-056>058-251400-
SOUTHCENTRAL AND SOUTHEAST MONTANA
CITY           SKY/WX    TMP DP  RH WIND       PRES   REMARKS
BAKER          CLEAR     54  48  80 CALM      29.98R
BILLINGS       CLEAR     61  36  39 SW6       30.01S
LIVINGSTON     CLEAR     52  32  47 W9        30.07S
MILES CITY     CLEAR     55  48  77 SE6       29.96S
* LAUREL APT   CLEAR     55  36  49 N/A        N/A
* ROUNDUP APT  CLEAR     61  34  36 SW13       N/A
* ALZADA       N/A       54  50  86 N/A        N/A
* HYSHAM       N/A       57  33  40 W4         N/A
* LAME DEER    N/A       58  41  53 S6         N/A
* REED POINT   N/A       48  34  59 NE1G6      N/A
* ROSCOE HILL  N/A       54  29  38 SE6        N/A
$$

REGIONAL REPORTS...DAKOTAS
CITY           SKY/WX    TMP DP  RH WIND       PRES   REMARKS
WILLISTON      CLEAR     57  52  83 W12       29.87F
DICKINSON      CLEAR     55  52  90 W8        29.91R
CROSBY         N/A      N/A N/A N/A N/A        N/A
TIOGA          CLEAR     57  57 100 W8        29.90R
WATFORD CITY   CLEAR     55  54  96 SW10      29.88S
BISMARCK       PTCLDY    70  64  81 NW9       29.82R
GRAND FORKS    PTCLDY    66  63  90 SW5       29.71R
FARGO          PTCLDY    68  63  84 S10       29.72S
BUFFALO SD     CLEAR     57  45  64 W5        29.91R
RAPID CITY     CLEAR     63  39  41 NW12      29.98R
$$

REGIONAL REPORTS...WYOMING/IDAHO/WASHINGTON
CITY           SKY/WX    TMP DP  RH WIND       PRES   REMARKS
GILLETTE       CLEAR     57  46  67 CALM      30.06R
SHERIDAN       CLEAR     55  48  77 NE3       30.02S
YELLOWSTONE LA CLEAR     30  23  75 NW5       30.28S WCI  25
SALMON         PTCLDY    45  37  74 CALM      30.13R
MULLAN PASS    CLOUDY    43  39  86 SW7       30.14S
SAND POINT     CLEAR     52  48  86 S6        30.06R
SPOKANE        FAIR      52  43  72 SW7       30.08R
$$

REGIONAL REPORTS...ALBERTA
CITY           SKY/WX    TMP DP  RH WIND       PRES   REMARKS
CALGARY        MOCLDY    57  36  46 W16G25    29.74S
LETHBRIDGE     FAIR      59  39  48 W24G36    29.81F
MEDICINE HAT   PTCLDY    57  45  64 SW20      29.74F
EDMONTON       LGT RAIN  55  54  96 W18G35    29.54F
WATERTON GATE  N/A       55  36  49 SW21G31    N/A
CARDSTON       N/A       55  41  59 SW20G30    N/A
MILK RIVER     N/A       57  37  47 W17G24     N/A
$$

REGIONAL REPORTS...SASKATCHEWAN
CITY           SKY/WX    TMP DP  RH WIND       PRES   REMARKS
SWIFT CURRENT  FAIR      50  45  83 SW17G23   29.73S
MOOSE JAW      FAIR      57  46  67 W16G28    29.73S
REGINA         N/A       55  48  77 SW9       29.75S
VAL MARIE      N/A       54  45  72 SW12       N/A
ASSINIBOIA     N/A       55  45  69 W20        N/A
CORONACH       N/A       54  45  72 SW12       N/A

$$




USA.gov is the U.S. government's official web portal to all federal, state and local government web resources and services.